| time (UTC) | temp F | wind direction | speed knots | gust knots | rain 1hr in | rain 24hr in | rain mn in | humidity % | barometer mb |
| 20260411104557 | 50 | 0 | 0.0 | 0.0 | 0.00 | 0.00 | 0.00 | 94 | 1024.7 |
| 20260411103103 | 50 | 0 | 0.0 | 0.0 | 0.00 | 0.00 | 0.00 | 94 | 1024.5 |
| 20260411101555 | 50 | 0 | 0.0 | 0.0 | 0.00 | 0.00 | 0.00 | 94 | 1024.3 |
| 20260411094601 | 50 | 0 | 0.0 | 0.0 | 0.00 | 0.00 | 0.00 | 94 | 1024.2 |
| 20260411093103 | 50 | 0 | 0.0 | 0.0 | 0.00 | 0.00 | 0.00 | 94 | 1024.1 |
| 20260411091606 | 50 | 0 | 0.0 | 0.0 | 0.00 | 0.00 | 0.00 | 94 | 1023.9 |
| 20260411090053 | 50 | 0 | 0.0 | 0.0 | 0.00 | 0.00 | 0.00 | 94 | 1024.0 |
| 20260411084600 | 51 | 0 | 0.0 | 0.0 | 0.00 | 0.00 | 0.00 | 94 | 1023.8 |
| 20260411083055 | 51 | 0 | 0.0 | 0.0 | 0.00 | 0.00 | 0.00 | 94 | 1023.7 |
| 20260411081559 | 51 | 0 | 0.0 | 0.0 | 0.00 | 0.00 | 0.00 | 94 | 1023.8 |
| 20260411080058 | 51 | 0 | 0.0 | 0.0 | 0.00 | 0.00 | 0.00 | 94 | 1023.8 |
| 20260411074616 | 51 | 0 | 0.0 | 0.0 | 0.00 | 0.00 | 0.00 | 93 | 1023.8 |
| 20260411073105 | 52 | 0 | 0.0 | 0.0 | 0.00 | 0.00 | 0.00 | 93 | 1023.9 |
| 20260411071604 | 52 | 0 | 0.0 | 0.0 | 0.00 | 0.00 | 0.00 | 93 | 1023.9 |
| 20260411070055 | 52 | 0 | 0.0 | 0.0 | 0.00 | 0.00 | 0.00 | 93 | 1024.1 |
| 20260411064556 | 52 | 0 | 0.0 | 0.0 | 0.00 | 0.00 | 0.00 | 93 | 1024.1 |
| 20260411063057 | 52 | 0 | 0.0 | 0.0 | 0.00 | 0.00 | 0.00 | 93 | 1024.1 |
| 20260411061608 | 53 | 0 | 0.0 | 0.0 | 0.00 | 0.00 | 0.00 | 92 | 1024.3 |
| 20260411060053 | 53 | 0 | 0.0 | 0.0 | 0.00 | 0.00 | 0.00 | 92 | 1024.5 |
| 20260411054553 | 53 | 0 | 0.0 | 0.0 | 0.00 | 0.00 | 0.00 | 92 | 1024.6 |
| 20260411053052 | 53 | 0 | 0.0 | 0.0 | 0.00 | 0.00 | 0.00 | 92 | 1024.8 |
| 20260411051600 | 54 | 0 | 0.0 | 0.0 | 0.00 | 0.00 | 0.00 | 91 | 1024.9 |
| 20260411050055 | 54 | 0 | 0.0 | 0.0 | 0.00 | 0.00 | 0.00 | 91 | 1025.1 |
| 20260411044554 | 54 | 0 | 0.0 | 0.0 | 0.00 | 0.00 | 0.00 | 90 | 1025.0 |
| 20260411043055 | 55 | 0 | 0.0 | 0.0 | 0.00 | 0.00 | 0.00 | 90 | 1025.1 |
| 20260411041555 | 55 | 0 | 0.0 | 0.0 | 0.00 | 0.00 | 0.00 | 89 | 1025.0 |
| 20260411040058 | 56 | 0 | 0.0 | 0.0 | 0.00 | 0.00 | 0.00 | 88 | 1025.1 |
| 20260411034553 | 56 | 0 | 0.0 | 0.0 | 0.00 | 0.00 | 0.00 | 87 | 1025.2 |
| 20260411033053 | 57 | 0 | 0.0 | 0.0 | 0.00 | 0.00 | 0.00 | 86 | 1025.2 |
| 20260411031553 | 58 | 0 | 0.0 | 0.0 | 0.00 | 0.00 | 0.00 | 85 | 1025.3 |
| 20260411030052 | 59 | 0 | 0.0 | 0.0 | 0.00 | 0.00 | 0.00 | 84 | 1025.5 |
| 20260411024554 | 59 | 0 | 0.0 | 0.0 | 0.00 | 0.00 | 0.00 | 83 | 1025.6 |
| 20260411023059 | 60 | 0 | 0.0 | 0.0 | 0.00 | 0.00 | 0.00 | 81 | 1025.6 |
| 20260411021559 | 61 | 0 | 0.0 | 0.0 | 0.00 | 0.00 | 0.00 | 79 | 1025.8 |
| 20260411020057 | 61 | 0 | 0.0 | 0.0 | 0.00 | 0.00 | 0.00 | 78 | 1025.8 |
| 20260411014604 | 62 | 0 | 0.0 | 0.9 | 0.00 | 0.00 | 0.00 | 75 | 1025.7 |
| 20260411013057 | 63 | 0 | 0.0 | 0.9 | 0.00 | 0.00 | 0.00 | 73 | 1025.5 |
| 20260411011604 | 63 | 0 | 0.0 | 0.9 | 0.00 | 0.00 | 0.00 | 72 | 1025.4 |
| 20260411010057 | 64 | 0 | 0.0 | 1.7 | 0.00 | 0.00 | 0.00 | 69 | 1025.3 |
| 20260411004558 | 65 | 0 | 0.0 | 2.6 | 0.00 | 0.00 | 0.00 | 67 | 1025.2 |
| 20260411003054 | 66 | 0 | 0.0 | 3.5 | 0.00 | 0.00 | 0.00 | 66 | 1025.0 |
| 20260411001557 | 67 | 0 | 0.0 | 3.5 | 0.00 | 0.00 | 0.00 | 64 | 1025.0 |
| 20260411000105 | 68 | 0 | 0.0 | 1.7 | 0.00 | 0.00 | 0.00 | 62 | 1024.9 |
| 20260410234603 | 69 | 0 | 0.9 | 3.5 | 0.00 | 0.00 | 0.00 | 61 | 1024.8 |
| 20260410233058 | 70 | 0 | 0.0 | 7.0 | 0.00 | 0.00 | 0.00 | 59 | 1024.6 |
| 20260410231559 | 71 | 126 | 1.7 | 5.2 | 0.00 | 0.00 | 0.00 | 57 | 1024.4 |
| 20260410230054 | 72 | 249 | 0.9 | 7.8 | 0.00 | 0.00 | 0.00 | 55 | 1024.3 |
| 20260410224558 | 73 | 134 | 1.7 | 7.0 | 0.00 | 0.00 | 0.00 | 54 | 1024.4 |
| 20260410223109 | 75 | 166 | 0.9 | 4.3 | 0.00 | 0.00 | 0.00 | 52 | 1024.2 |
| 20260410221609 | 76 | 145 | 0.0 | 3.5 | 0.00 | 0.00 | 0.00 | 51 | 1024.2 |
| 20260410220058 | 76 | 63 | 1.7 | 4.3 | 0.00 | 0.00 | 0.00 | 51 | 1024.0 |
| 20260410214611 | 78 | 121 | 0.0 | 2.6 | 0.00 | 0.00 | 0.00 | 42 | 1024.0 |
| 20260410213110 | 79 | 201 | 0.0 | 3.5 | 0.00 | 0.00 | 0.00 | 40 | 1024.0 |
| 20260410211617 | 78 | 166 | 0.9 | 3.5 | 0.00 | 0.00 | 0.00 | 39 | 1023.9 |
| 20260410210106 | 77 | 209 | 0.0 | 3.5 | 0.00 | 0.00 | 0.00 | 41 | 1023.9 |
| 20260410204613 | 78 | 0 | 0.0 | 3.5 | 0.00 | 0.00 | 0.00 | 39 | 1023.9 |
| 20260410203107 | 79 | 263 | 1.7 | 5.2 | 0.00 | 0.00 | 0.00 | 39 | 1024.2 |
| 20260410201611 | 78 | 248 | 1.7 | 6.1 | 0.00 | 0.00 | 0.00 | 42 | 1024.3 |
| 20260410200054 | 80 | 300 | 0.9 | 7.8 | 0.00 | 0.00 | 0.00 | 42 | 1024.5 |
| 20260410194556 | 79 | 261 | 1.7 | 7.0 | 0.00 | 0.00 | 0.00 | 42 | 1024.6 |
| 20260410193102 | 78 | 292 | 1.7 | 4.3 | 0.00 | 0.00 | 0.00 | 45 | 1024.9 |
| 20260410191556 | 78 | 284 | 0.9 | 7.0 | 0.00 | 0.00 | 0.00 | 44 | 1025.1 |
| 20260410190123 | 78 | 294 | 0.9 | 4.3 | 0.00 | 0.00 | 0.00 | 45 | 1025.1 |
| 20260410184612 | 76 | 0 | 0.9 | 3.5 | 0.00 | 0.00 | 0.00 | 48 | 1025.3 |
| 20260410183055 | 78 | 332 | 0.9 | 7.0 | 0.00 | 0.00 | 0.00 | 47 | 1025.5 |
| 20260410181556 | 77 | 271 | 0.0 | 5.2 | 0.00 | 0.00 | 0.00 | 49 | 1025.7 |
| 20260410180055 | 77 | 307 | 1.7 | 6.1 | 0.00 | 0.00 | 0.00 | 50 | 1026.0 |
| 20260410174609 | 75 | 0 | 0.9 | 5.2 | 0.00 | 0.00 | 0.00 | 54 | 1026.2 |
| 20260410173109 | 74 | 0 | 0.9 | 4.3 | 0.00 | 0.00 | 0.00 | 51 | 1026.5 |
| 20260410171603 | 74 | 139 | 0.0 | 6.1 | 0.00 | 0.00 | 0.00 | 51 | 1026.6 |
| 20260410170108 | 76 | 274 | 0.9 | 5.2 | 0.00 | 0.00 | 0.00 | 53 | 1026.9 |
| 20260410164601 | 74 | 332 | 0.9 | 3.5 | 0.00 | 0.00 | 0.00 | 56 | 1027.1 |
| 20260410163102 | 75 | 0 | 0.9 | 6.1 | 0.00 | 0.00 | 0.00 | 54 | 1027.1 |
| 20260410161559 | 73 | 116 | 0.9 | 5.2 | 0.00 | 0.00 | 0.00 | 55 | 1027.2 |
| 20260410160100 | 73 | 302 | 0.9 | 6.1 | 0.00 | 0.00 | 0.00 | 56 | 1027.3 |
| 20260410154641 | 72 | 126 | 0.9 | 3.5 | 0.00 | 0.00 | 0.00 | 58 | 1027.5 |
| 20260410153052 | 72 | 316 | 0.0 | 5.2 | 0.00 | 0.00 | 0.00 | 59 | 1027.6 |
| 20260410151610 | 70 | 116 | 0.9 | 5.2 | 0.00 | 0.00 | 0.00 | 60 | 1027.7 |
| 20260410150056 | 69 | 0 | 0.0 | 3.5 | 0.00 | 0.00 | 0.00 | 64 | 1027.7 |
| 20260410144555 | 68 | 264 | 0.9 | 4.3 | 0.00 | 0.00 | 0.00 | 65 | 1027.8 |
| 20260410143057 | 68 | 0 | 1.7 | 5.2 | 0.00 | 0.00 | 0.00 | 66 | 1027.7 |
| 20260410141609 | 67 | 121 | 0.9 | 4.3 | 0.00 | 0.00 | 0.00 | 67 | 1027.6 |
| 20260410140120 | 66 | 167 | 0.9 | 5.2 | 0.00 | 0.00 | 0.00 | 70 | 1027.4 |
| 20260410134611 | 64 | 103 | 0.9 | 2.6 | 0.00 | 0.00 | 0.00 | 73 | 1027.5 |
| 20260410133100 | 63 | 0 | 0.0 | 3.5 | 0.00 | 0.00 | 0.00 | 76 | 1027.4 |
| 20260410131612 | 61 | 126 | 0.9 | 4.3 | 0.00 | 0.00 | 0.00 | 78 | 1027.3 |
| 20260410130106 | 60 | 0 | 0.0 | 4.3 | 0.00 | 0.00 | 0.00 | 81 | 1027.3 |
| 20260410124554 | 58 | 0 | 0.0 | 1.7 | 0.00 | 0.00 | 0.00 | 86 | 1027.1 |
| 20260410123053 | 57 | 0 | 0.9 | 6.1 | 0.00 | 0.00 | 0.00 | 90 | 1027.2 |
| 20260410121555 | 55 | 0 | 0.0 | 1.7 | 0.00 | 0.00 | 0.00 | 93 | 1027.3 |
| 20260410120108 | 54 | 0 | 0.0 | 1.7 | 0.00 | 0.00 | 0.00 | 94 | 1027.1 |
| 20260410114554 | 52 | 0 | 0.0 | 0.0 | 0.00 | 0.00 | 0.00 | 95 | 1026.9 |
| 20260410113053 | 51 | 0 | 0.0 | 0.0 | 0.00 | 0.00 | 0.00 | 94 | 1026.9 |
| 20260410111557 | 51 | 0 | 0.0 | 0.0 | 0.00 | 0.00 | 0.00 | 94 | 1026.9 |
| 20260410110058 | 51 | 0 | 0.0 | 0.0 | 0.00 | 0.00 | 0.00 | 94 | 1026.8 |